This is the latest recevied weather packets stored in our database for station/object N6OL. If no packets are shown the sender has not sent any weather packets the latest 10 day(s).
| Time | Temp. | Humidity | Pressure | Rain* | Wind** | Luminosity | Snow |
|---|---|---|---|---|---|---|---|
| 1778169624 | 12.78° C | 86% | 1019.2 hPa | 0 mm | - | 165 W/m² | - |
| 1778168403 | 12.22° C | 86% | 1019.3 hPa | 0 mm | - | 123 W/m² | - |
| 1778166303 | 12.22° C | 87% | 1019.3 hPa | 0 mm | - | 79 W/m² | - |
| 1778164203 | 12.22° C | 87% | 1019.1 hPa | 0 mm | - | 44 W/m² | - |
| 1778163003 | 12.22° C | 87% | 1019 hPa | 0 mm | - | 26 W/m² | - |
| 1778162703 | 12.22° C | 88% | 1019 hPa | 0 mm | - | 25 W/m² | - |
| 1778161203 | 12.22° C | 88% | 1018.9 hPa | 0 mm | - | 11 W/m² | - |
| 1778156703 | 12.22° C | 87% | 1018.6 hPa | 0 mm | - | 0 W/m² | - |
| 1778154624 | 12.22° C | 87% | 1018.8 hPa | 0 mm | - | 0 W/m² | - |
| 1778152503 | 12.22° C | 86% | 1018.9 hPa | 0 mm | - | 0 W/m² | - |
| 1778152203 | 12.22° C | 86% | 1018.9 hPa | 0 mm | - | 0 W/m² | - |
| 1778150103 | 12.22° C | 87% | 1018.9 hPa | 0 mm | - | 0 W/m² | - |
| 1778149203 | 12.22° C | 87% | 1019 hPa | 0 mm | - | 0 W/m² | - |
| 1778148003 | 12.22° C | 87% | 1018.8 hPa | 0 mm | - | 0 W/m² | - |
| 1778147703 | 12.22° C | 87% | 1018.7 hPa | 0 mm | - | 0 W/m² | - |
| 1778146203 | 12.78° C | 87% | 1019 hPa | 0 mm | - | 0 W/m² | - |
| 1778140803 | 12.78° C | 87% | 1019.2 hPa | 0 mm | - | 0 W/m² | - |
| 1778140203 | 12.78° C | 87% | 1019.2 hPa | 0 mm | - | 0 W/m² | - |
| 1778139603 | 12.78° C | 87% | 1019.2 hPa | 0 mm | - | 0 W/m² | - |
| 1778138703 | 12.78° C | 87% | 1019.3 hPa | 0 mm | - | 0 W/m² | - |
| 1778138124 | 12.78° C | 87% | 1019.2 hPa | 0 mm | - | 0 W/m² | - |
| 1778133903 | 12.78° C | 87% | 1019.2 hPa | 0 mm | - | 0 W/m² | - |
| 1778133603 | 13.33° C | 87% | 1019.2 hPa | 0 mm | - | 0 W/m² | - |
| 1778132403 | 12.78° C | 87% | 1019.2 hPa | 0 mm | - | 0 W/m² | - |
| 1778132103 | 12.78° C | 87% | 1019.3 hPa | 0 mm | - | 0 W/m² | - |
* Rain latest hour (hover to see other rain measurements)
** Current wind speed in m/s (hover to see current wind gust speed)